This is the latest recevied weather packets stored in our database for station/object KD2ZLA. If no packets are shown the sender has not sent any weather packets the latest 10 day(s).
| Time | Temp. | Humidity | Pressure | Rain* | Wind** | Luminosity | Snow |
|---|---|---|---|---|---|---|---|
| 1777988991 | 20.56° C | 57% | 1000.5 hPa | 0 mm | - | 384 W/m² | - |
| 1777988688 | 20.56° C | 58% | 1000.8 hPa | 0 mm | - | 315 W/m² | - |
| 1777988384 | 20.56° C | 57% | 1000.4 hPa | 0 mm | - | 346 W/m² | - |
| 1777988082 | 20.56° C | 59% | 1000.8 hPa | 0 mm | - | 343 W/m² | - |
| 1777987777 | 20° C | 60% | 1000.6 hPa | 0 mm | - | 412 W/m² | - |
| 1777987474 | 20° C | 61% | 1000.6 hPa | 0 mm | - | 342 W/m² | - |
| 1777987171 | 20° C | 62% | 1000.6 hPa | 0 mm | - | 469 W/m² | - |
| 1777986868 | 19.44° C | 64% | 1000.5 hPa | 0 mm | - | 476 W/m² | - |
| 1777986566 | 18.89° C | 66% | 1000.6 hPa | 0 mm | - | 345 W/m² | - |
| 1777986264 | 18.33° C | 69% | 1000.8 hPa | 0 mm | - | 382 W/m² | - |
| 1777985961 | 17.78° C | 71% | 1000.9 hPa | 0 mm | - | 324 W/m² | - |
| 1777985659 | 16.67° C | 75% | 1001 hPa | 0 mm | - | 284 W/m² | - |
| 1777985355 | 16.11° C | 78% | 1001.2 hPa | 0 mm | - | 143 W/m² | - |
| 1777985052 | 16.11° C | 79% | 1001.2 hPa | 0.51 mm | - | 110 W/m² | - |
| 1777984748 | 16.11° C | 79% | 1001.1 hPa | 0.51 mm | - | 72 W/m² | - |
| 1777984445 | 16.11° C | 77% | 1001.4 hPa | 1.78 mm | - | 80 W/m² | - |
| 1777984140 | 16.67° C | 75% | 1001.2 hPa | 1.78 mm | - | 100 W/m² | - |
| 1777983838 | 17.78° C | 66% | 1001.3 hPa | 0 mm | - | 62 W/m² | - |
| 1777983534 | 17.78° C | 65% | 1001 hPa | 0 mm | - | 157 W/m² | - |
| 1777983232 | 17.78° C | 65% | 1000.8 hPa | 0 mm | - | 106 W/m² | - |
| 1777982927 | 17.78° C | 66% | 1000.8 hPa | 0 mm | - | 96 W/m² | - |
| 1777982624 | 17.78° C | 67% | 1001.1 hPa | 0 mm | - | 129 W/m² | - |
| 1777982322 | 17.22° C | 69% | 1000.9 hPa | 0 mm | - | 301 W/m² | - |
| 1777982020 | 16.67° C | 71% | 1001.1 hPa | 0 mm | - | 225 W/m² | - |
| 1777981718 | 16.11° C | 72% | 1001.1 hPa | 0 mm | - | 188 W/m² | - |
* Rain latest hour (hover to see other rain measurements)
** Current wind speed in m/s (hover to see current wind gust speed)